[[{"header":{"parameterUnit":"m.s-1","parameterCategory":1,"la1":30.2991,"la2":30.254,"lo1":-89.0895,"lo2":-89.0444,"dy":0.0017,"dx":0.0017,"nx":28,"ny":28,"refTime":"2024-06-11T21:00:00:Z","depth":0,"parameterNumber":2,"parameterNumberName":"U-component_of_WINDS"},"data":[0,0,0,0,0,0,0,0,0,0,0,0,0,0,0,0,0,0,0,0,0,0,0,0,0,0,0,0,0,0,0,0,0,0,0,0,0,0,0,0,0,0,0,0,0,0,0,0,0,0,0,0,0,0,0,0,0,0,-0.8359,-0.836,0,-0.8378,-0.8378,-0.8378,-0.8315,-0.8313,-0.8311,-0.8309,-0.833,-0.8332,-0.8335,0,0,0,0,0,0,0,0,0,0,0,0,0,-0.827,-0.8272,-0.8359,-0.836,-0.836,-0.8378,-0.8378,-0.8378,-0.8315,-0.8313,-0.8311,-0.8309,-0.8329,-0.8332,-0.8335,0,0,0,0,0,0,0,0,0,0,0,0,0,-0.8301,-0.8273,-0.8359,-0.8331,-0.8328,-0.8378,-0.8378,-0.8378,-0.8316,-0.8313,-0.831,-0.8308,-0.8329,-0.8332,-0.8335,-0.8414,0,0,-0.8346,-0.8348,0,0,0,0,0,0,0,0,-0.8299,-0.8304,-0.8335,-0.8333,-0.833,-0.8341,-0.8354,-0.839,-0.8317,-0.8321,-0.8309,-0.8306,-0.8336,-0.8339,-0.8349,-0.8415,-0.8416,-0.8346,-0.8348,-0.835,-0.8351,0,0,0,0,0,0,0,-0.8297,-0.8303,-0.8367,-0.8335,-0.8332,-0.8317,-0.8318,-0.8361,-0.8344,-0.832,-0.8315,-0.8318,-0.8334,-0.8346,-0.8349,-0.8416,-0.8346,-0.8349,-0.8352,-0.8353,-0.8548,-0.8551,0,0,0,0,0,0,-0.8299,-0.8302,-0.8366,-0.8367,-0.8307,-0.8321,-0.8322,-0.8341,-0.8344,-0.8341,-0.8321,-0.8315,-0.8341,-0.8345,-0.8349,-0.8442,-0.835,-0.8353,-0.8355,-0.8545,-0.8549,-0.8552,0,0,0,0,0,0,-0.8297,-0.8305,-0.8365,-0.8333,-0.834,-0.8325,-0.8347,-0.8342,-0.8353,-0.8344,-0.8341,-0.8335,-0.8339,-0.8344,-0.8398,-0.8442,-0.8355,-0.8358,-0.8541,-0.8546,-0.855,-0.8628,0,0,0,0,0,0,-0.8295,-0.8305,-0.8335,-0.8334,-0.8342,-0.8414,-0.8349,-0.8345,-0.8359,-0.8352,-0.8357,-0.8355,-0.8337,-0.8393,-0.8402,-0.8445,-0.8361,-0.8537,-0.8543,-0.8549,-0.8622,-0.8635,-0.8646,0,0,0,0,0,-0.8292,-0.8356,-0.8337,-0.8345,-0.8379,-0.8417,-0.8421,-0.8399,-0.8363,-0.8393,-0.8387,-0.8355,-0.8435,-0.84,-0.8408,-0.8454,-0.8535,-0.8542,-0.8548,-0.8616,-0.8632,-0.8646,0,0,0,0,0,0,-0.8363,-0.8356,-0.8334,-0.84,-0.8409,-0.8406,-0.8443,-0.8416,-0.8437,-0.843,-0.8401,-0.8403,-0.8462,-0.8463,-0.8423,-0.853,-0.8479,-0.8488,-0.8528,-0.8543,-0.8555,-0.8554,-0.8364,0,0,0,0,0,-0.8386,-0.8417,-0.8409,-0.8469,-0.8474,-0.8458,-0.8474,-0.8456,-0.8465,-0.8469,-0.8466,-0.8477,-0.8504,-0.8523,-0.8548,-0.8621,-0.8621,-0.8656,-0.8668,-0.8678,-0.8687,-0.8726,-0.8742,-0.8575,-0.8575,-0.8575,0,0,-0.8435,-0.8435,-0.8456,-0.8483,-0.8488,-0.8522,-0.8462,-0.85,-0.8525,-0.8474,-0.8525,-0.8524,-0.8534,-0.8598,-0.8625,-0.86,-0.8733,-0.8687,-0.8695,-0.8699,-0.8735,-0.8751,-0.8765,-0.8579,-0.8579,-0.8578,0,0,-0.8541,-0.8543,-0.8593,-0.8599,-0.8607,-0.8596,-0.8608,-0.8608,-0.8606,-0.8656,-0.8619,-0.8648,-0.8696,-0.8704,-0.8715,-0.8822,-0.8794,-0.8831,-0.8896,-0.8934,-0.8947,-0.8959,-0.8998,-0.9013,-0.8839,-0.884,-0.884,0,-0.8601,-0.8649,-0.8622,-0.8663,-0.8676,-0.863,-0.8681,-0.8688,-0.8704,-0.8715,-0.8685,-0.8744,-0.8747,-0.8813,-0.8839,-0.8848,-0.8862,-0.8831,-0.8947,-0.8959,-0.8969,-0.9007,-0.9021,-0.8844,-0.8844,-0.8843,-0.8843,0,-0.8723,-0.8757,-0.8796,-0.8812,-0.8829,-0.8875,-0.8855,-0.8875,-0.8855,-0.8847,-0.8899,-0.89,-0.8925,-0.8938,-0.892,-0.9001,-0.8985,-0.8952,-0.8901,-0.899,-0.9025,-0.9039,-0.8851,-0.8849,-0.8848,-0.8847,0,0,-0.8876,-0.8876,-0.8891,-0.8897,-0.8902,-0.8929,-0.8971,-0.8995,-0.9013,-0.9025,-0.9061,-0.9102,-0.9071,-0.9083,-0.9064,-0.9098,-0.9184,-0.906,-0.906,-0.9085,-0.9275,-0.9301,-0.9318,-0.9164,-0.9167,-0.9169,-0.9275,0,-0.8981,-0.9055,-0.9031,-0.9106,-0.9137,-0.9094,-0.9131,-0.9138,-0.9131,-0.9157,-0.9149,-0.9179,-0.9136,-0.9143,-0.9173,-0.9167,-0.9222,-0.9159,-0.9198,-0.92,-0.9199,-0.9336,-0.9364,-0.9464,-0.9288,-0.929,-0.9292,0,-0.9114,-0.9131,-0.9209,-0.9208,-0.922,-0.9255,-0.9274,-0.9298,-0.9306,-0.9298,-0.9311,-0.9285,-0.9327,-0.9274,-0.9332,-0.929,-0.9304,-0.9303,-0.9307,-0.9311,-0.9253,-0.9345,-0.9495,-0.9511,-0.9313,-0.9311,-0.9309,0,-0.922,-0.9262,-0.9314,-0.9321,-0.9321,-0.9346,-0.9347,-0.9351,-0.9367,-0.9383,-0.9393,-0.9414,-0.9427,-0.9444,-0.9425,-0.9388,-0.9486,-0.9431,-0.9482,-0.9482,-0.9506,-0.9505,-0.9662,-0.9513,-0.9513,-0.9512,-0.9512,0,-0.9341,-0.9391,-0.9361,-0.9393,-0.9447,-0.9419,-0.9474,-0.947,-0.9474,-0.9505,-0.9468,-0.9498,-0.9469,-0.9497,-0.9481,-0.9532,-0.9538,-0.9533,-0.9529,-0.9538,-0.9539,-0.9548,-0.9541,-0.9516,-0.9515,-0.9515,-0.9514,0,-0.9469,-0.9451,-0.9505,-0.95,-0.95,-0.9541,-0.9537,-0.9566,-0.9555,-0.9595,-0.9603,-0.9587,-0.9617,-0.9598,-0.9629,-0.9619,-0.9685,-0.9671,-0.9683,-0.968,-0.9732,-0.9728,-0.9901,-0.9923,-0.9759,-0.9761,-0.9762,0,-0.9549,-0.9585,-0.9584,-0.9602,-0.9606,-0.9635,-0.965,-0.9623,-0.964,-0.9651,-0.9679,-0.9706,-0.9726,-0.9776,-0.9768,-0.9791,-0.9777,-0.9836,-0.9781,-0.9788,-0.978,-0.9778,-0.9782,-0.9848,-0.985,-0.9852,-0.9853,0,-0.9692,-0.9681,-0.9704,-0.9724,-0.9743,-0.9757,-0.9769,-0.9785,-0.9758,-0.978,-0.981,-0.9825,-0.9856,-0.9883,-0.9902,-0.9904,-0.9875,-0.987,-0.9883,-0.9894,-0.99,-0.9898,-0.9716,-0.9867,-0.9866,-0.9865,-0.9864,-0.9863,-0.9799,-0.9829,-0.9833,-0.986,-0.9866,-0.9877,-0.9905,-0.9897,-0.9921,-0.9944,-0.9927,-0.9963,-0.9968,-0.9991,-0.9996,-1.0023,-1.0,-1.0018,-1.0023,-1.0029,-1.0037,-0.9894,-1.0027,-1.0026,-1.0026,-1.0025,-1.0025,0,-0.9941,-0.9941,-0.9965,-0.9983,-1.0004,-0.9972,-0.9983,-1.0003,-1.0035,-1.0042,-1.0063,-1.0097,-1.0123,-1.0115,-1.0139,-1.0162,-1.015,-1.0169,-1.0168,-1.0169,-1.0056,-1.0043,-1.0179,-1.0179,-1.0179,-1.0179,-1.0179,-1.0179,-1.0017,-1.0068,-1.0058,-1.0111,-1.011,-1.0144,-1.0153,-1.0164,-1.0169,-1.0209,-1.023,-1.0225,-1.0226,-1.0249,-1.0272,-1.0269,-1.028,-1.0305,-1.0297,-1.0192,-1.0177,-1.0163,-1.015,-1.0307,-1.0307,-1.0408,-1.0409,-1.041]},{"header":{"parameterUnit":"m.s-1","parameterCategory":1,"la1":30.2991,"la2":30.254,"lo1":-89.0895,"lo2":-89.0444,"dy":0.0017,"dx":0.0017,"nx":28,"ny":28,"refTime":"2024-06-11T21:00:00:Z","depth":0,"parameterNumber":3,"parameterNumberName":"V-component_of_WINDS"},"data":[0,0,0,0,0,0,0,0,0,0,0,0,0,0,0,0,0,0,0,0,0,0,0,0,0,0,0,0,0,0,0,0,0,0,0,0,0,0,0,0,0,0,0,0,0,0,0,0,0,0,0,0,0,0,0,0,0,0,-3.5482,-3.5483,0,-3.5551,-3.5552,-3.5552,-3.5522,-3.552,-3.5518,-3.5517,-3.5583,-3.5586,-3.5589,0,0,0,0,0,0,0,0,0,0,0,0,0,-3.5319,-3.5322,-3.5482,-3.5483,-3.5484,-3.5551,-3.5552,-3.5553,-3.5522,-3.552,-3.5518,-3.5516,-3.5582,-3.5586,-3.559,0,0,0,0,0,0,0,0,0,0,0,0,0,-3.5389,-3.5323,-3.5482,-3.5476,-3.5477,-3.5551,-3.5552,-3.5553,-3.5522,-3.552,-3.5517,-3.5515,-3.558,-3.5585,-3.559,-3.5672,0,0,-3.5606,-3.5608,0,0,0,0,0,0,0,0,-3.5385,-3.5395,-3.5476,-3.5477,-3.5477,-3.5525,-3.5519,-3.5593,-3.5523,-3.5505,-3.5517,-3.5514,-3.5565,-3.5571,-3.559,-3.5675,-3.5678,-3.5606,-3.5609,-3.5611,-3.5613,0,0,0,0,0,0,0,-3.538,-3.5392,-3.5509,-3.5478,-3.5478,-3.5469,-3.5476,-3.5532,-3.5548,-3.5506,-3.5504,-3.5513,-3.5565,-3.5585,-3.5591,-3.5679,-3.5606,-3.561,-3.5613,-3.5615,-3.5834,-3.5836,0,0,0,0,0,0,-3.5376,-3.5388,-3.5507,-3.5511,-3.5424,-3.5474,-3.5482,-3.5512,-3.5548,-3.5551,-3.5515,-3.5511,-3.5578,-3.5585,-3.5593,-3.5691,-3.5611,-3.5616,-3.5619,-3.5831,-3.5834,-3.5837,0,0,0,0,0,0,-3.5373,-3.5387,-3.5504,-3.5449,-3.5463,-3.548,-3.5514,-3.5515,-3.5535,-3.5554,-3.5557,-3.5533,-3.5576,-3.5586,-3.5653,-3.5693,-3.5618,-3.5623,-3.5828,-3.5832,-3.5836,-3.5887,0,0,0,0,0,0,-3.5368,-3.5386,-3.5418,-3.545,-3.5466,-3.5564,-3.5516,-3.5518,-3.5544,-3.554,-3.5572,-3.5574,-3.5575,-3.5646,-3.5658,-3.5698,-3.5627,-3.5824,-3.583,-3.5835,-3.5881,-3.5892,-3.5901,0,0,0,0,0,-3.5363,-3.5429,-3.542,-3.5435,-3.5507,-3.5566,-3.5575,-3.5576,-3.5548,-3.5579,-3.5592,-3.5573,-3.5687,-3.5653,-3.5666,-3.5709,-3.5822,-3.5828,-3.5834,-3.5877,-3.589,-3.5901,0,0,0,0,0,0,-3.54,-3.5433,-3.5424,-3.5503,-3.5532,-3.5561,-3.5601,-3.5589,-3.5626,-3.562,-3.5618,-3.5625,-3.5694,-3.5708,-3.567,-3.5789,-3.575,-3.5759,-3.5778,-3.579,-3.58,-3.5794,-3.5631,0,0,0,0,0,-3.5418,-3.5464,-3.549,-3.5557,-3.5572,-3.5584,-3.561,-3.5608,-3.5637,-3.5649,-3.5667,-3.5695,-3.5737,-3.5764,-3.5804,-3.5884,-3.5889,-3.592,-3.5929,-3.5937,-3.5945,-3.5987,-3.6001,-3.5858,-3.5858,-3.5858,0,0,-3.5454,-3.5478,-3.5507,-3.5565,-3.5588,-3.5634,-3.5595,-3.5646,-3.568,-3.5657,-3.5721,-3.5734,-3.5766,-3.5839,-3.5872,-3.5853,-3.5986,-3.5945,-3.5952,-3.5955,-3.5995,-3.6009,-3.6021,-3.5862,-3.5862,-3.5861,0,0,-3.5544,-3.5567,-3.5626,-3.5649,-3.5684,-3.5692,-3.5706,-3.5737,-3.5746,-3.581,-3.5794,-3.5834,-3.5906,-3.5929,-3.595,-3.6049,-3.6033,-3.6062,-3.6113,-3.6154,-3.6166,-3.6175,-3.621,-3.6222,-3.607,-3.607,-3.607,0,-3.5584,-3.5655,-3.5656,-3.5709,-3.5735,-3.5717,-3.5776,-3.5798,-3.5844,-3.5861,-3.5839,-3.593,-3.595,-3.6028,-3.6052,-3.607,-3.6085,-3.6058,-3.6164,-3.6174,-3.6183,-3.6216,-3.6229,-3.6073,-3.6073,-3.6073,-3.6072,0,-3.5703,-3.5752,-3.5795,-3.5841,-3.5872,-3.5927,-3.5935,-3.5965,-3.5961,-3.597,-3.6036,-3.6059,-3.6103,-3.6121,-3.6117,-3.6199,-3.6186,-3.6164,-3.6124,-3.62,-3.6231,-3.6243,-3.6078,-3.6077,-3.6076,-3.6075,0,0,-3.5817,-3.5864,-3.588,-3.59,-3.5938,-3.5975,-3.6029,-3.6074,-3.6099,-3.6132,-3.6176,-3.6238,-3.6218,-3.6242,-3.624,-3.6277,-3.6353,-3.625,-3.6251,-3.6268,-3.6443,-3.6459,-3.6473,-3.6343,-3.6345,-3.6347,-3.644,0,-3.5909,-3.6005,-3.6008,-3.6095,-3.6141,-3.6125,-3.6172,-3.6199,-3.621,-3.6248,-3.6259,-3.6303,-3.6274,-3.6288,-3.6324,-3.6336,-3.6388,-3.6329,-3.6382,-3.6384,-3.6374,-3.6489,-3.6506,-3.6592,-3.6452,-3.6454,-3.6456,0,-3.6029,-3.6067,-3.6159,-3.619,-3.6209,-3.6252,-3.6292,-3.633,-3.6361,-3.6365,-3.6393,-3.6385,-3.6439,-3.6398,-3.6471,-3.6432,-3.6453,-3.6463,-3.6466,-3.647,-3.6424,-3.6495,-3.662,-3.6633,-3.6475,-3.6473,-3.6472,0,-3.6102,-3.6176,-3.6241,-3.6259,-3.6297,-3.6327,-3.6344,-3.6372,-3.6399,-3.6434,-3.6451,-3.6491,-3.6513,-3.6544,-3.6547,-3.6517,-3.662,-3.658,-3.6624,-3.6624,-3.6646,-3.6644,-3.6775,-3.6662,-3.6662,-3.6662,-3.6661,0,-3.6204,-3.6261,-3.6274,-3.6313,-3.6376,-3.6378,-3.644,-3.6454,-3.648,-3.6521,-3.6509,-3.6548,-3.655,-3.6589,-3.6592,-3.6652,-3.6662,-3.6666,-3.6666,-3.6667,-3.6666,-3.668,-3.6673,-3.6665,-3.6664,-3.6664,-3.6663,0,-3.6296,-3.6307,-3.6376,-3.6407,-3.6416,-3.6461,-3.6487,-3.6524,-3.6534,-3.6586,-3.6598,-3.6613,-3.6658,-3.6665,-3.6718,-3.6719,-3.6791,-3.6785,-3.6781,-3.6779,-3.6823,-3.6819,-3.6966,-3.6985,-3.6861,-3.6863,-3.6864,0,-3.6359,-3.6403,-3.6439,-3.6467,-3.6486,-3.653,-3.6557,-3.6561,-3.659,-3.6628,-3.666,-3.6705,-3.6741,-3.6814,-3.6828,-3.6868,-3.6862,-3.6911,-3.6868,-3.6867,-3.6862,-3.6859,-3.6862,-3.6919,-3.6921,-3.6922,-3.6923,0,-3.6471,-3.6475,-3.6515,-3.6558,-3.6592,-3.6625,-3.6656,-3.6679,-3.6687,-3.6719,-3.6767,-3.6795,-3.6849,-3.6893,-3.6933,-3.6949,-3.6937,-3.6937,-3.6949,-3.6949,-3.6945,-3.6947,-3.6802,-3.6933,-3.6932,-3.6931,-3.693,-3.693,-3.655,-3.6588,-3.6619,-3.6665,-3.6689,-3.6719,-3.6756,-3.677,-3.681,-3.6856,-3.6856,-3.6907,-3.6936,-3.6988,-3.7007,-3.7046,-3.703,-3.7048,-3.7052,-3.7057,-3.706,-3.694,-3.7054,-3.7053,-3.7053,-3.7053,-3.7053,0,-3.666,-3.668,-3.6722,-3.6767,-3.6803,-3.679,-3.6824,-3.6854,-3.69,-3.6929,-3.6965,-3.7019,-3.7062,-3.708,-3.7121,-3.7149,-3.7145,-3.716,-3.7157,-3.7161,-3.7073,-3.7058,-3.7163,-3.7163,-3.7163,-3.7163,-3.7163,-3.7163,-3.6721,-3.6784,-3.6792,-3.6866,-3.6885,-3.6937,-3.6958,-3.6984,-3.7007,-3.7069,-3.7105,-3.7117,-3.7141,-3.7184,-3.7222,-3.7226,-3.7242,-3.7259,-3.7261,-3.7178,-3.7167,-3.7156,-3.7142,-3.7263,-3.7263,-3.7345,-3.7346,-3.7346]}]]